Location: Codford Saint Peter
(51.1597°N, 2.0531°W)
Time: 11:58:08
(UTC+00:00)

Cosmos 2285 Rocket - Pass Details

Date: 18 September 2020
Orbit: 970 x 1000 km, 74.0° (Epoch: 23 October)

Event Time Altitude Azimuth Distance (km) Brightness Sun altitude
Rises 21:18:57 0° 213° (SSW) 3,656 6.9 -27.1°
Reaches altitude 10° 21:21:30 10° 217° (SW) 2,715 6.2 -27.4°
Maximum altitude 21:27:45 65° 299° (WNW) 1,073 4.3 -28.1°
Drops below altitude 10° 21:34:05 10° 21° (NNE) 2,749 6.6 -28.8°
Sets 21:36:41 0° 25° (NNE) 3,706 7.3 -29.1°
